Weather History for Pella, IA

Change the Weather History Date:

Wednesday, March 5, 2014

  Actual Average (KOXV) Record (KOXV)
Temperature  
Mean Temperature 22 °F -  
Max Temperature 25 °F 42 °F 77 °F (2009)
Min Temperature 20 °F 24 °F -19 °F (1960)
Degree Days  
Heating Degree Days 42    
Moisture  
Dew Point 18 °F    
Average Humidity 80    
Maximum Humidity 90    
Minimum Humidity 70    
Precipitation  
Precipitation 0.00 in - - ()
Sea Level Pressure  
Sea Level Pressure 30.29 in    
Wind  
Wind Speed 9 mph (East)    
Max Wind Speed 14 mph    
Max Gust Speed 20 mph    
Visibility 8 miles    
Events Snow    
Averages and records for this station are not official NWS values.
T = Trace of Precipitation, MM = Missing Value Source: NWS Daily Summary

Daily Weather History Graph

Daily Weather History Graph

Search for Another Location

Airport:

Trip Planner

Search our weather history database for the weather conditions in past years. The results will help you decide how hot, cold, wet, or windy it might be!

Date:

Astronomy

Mar. 05, 2014 Rise Set
Actual Time 6:39 AM CST 6:07 PM CST
Civil Twilight 6:12 AM CST 6:34 PM CST
Nautical Twilight 5:40 AM CST 7:06 PM CST
Astronomical Twilight 5:08 AM CST 7:39 PM CST
Moon 9:02 AM CST (3/5) 11:20 PM CST (3/5)
Length of Visible Light 12h 22m
Length of Day
11h 27m
Waxing Crescent, 23% of the Moon is Illuminated
Mar 5
Waxing Crescent
Mar 8
First Quarter
Mar 16
Full
Mar 23
Last Quarter
Mar 30
New

Hourly Weather History & Observations

Time (CST) Temp. Windchill Dew Point Humidity Pressure Visibility Wind Dir Wind Speed Gust Speed Precip Events Conditions
12:15 AM 23.7 °F 14.7 °F 16.2 °F 73% 30.16 in 10.0 mi East 8.1 mph - N/A   Clear
12:35 AM 23.2 °F 15.0 °F 15.8 °F 73% 30.16 in 10.0 mi East 6.9 mph - N/A   Clear
12:55 AM 22.8 °F 15.5 °F 15.6 °F 74% 30.17 in 10.0 mi East 5.8 mph - N/A   Scattered Clouds
1:15 AM 23.0 °F 15.8 °F 15.6 °F 73% 30.17 in 10.0 mi East 5.8 mph - N/A   Mostly Cloudy
1:35 AM 23.0 °F 13.1 °F 15.4 °F 73% 30.18 in 10.0 mi East 9.2 mph - N/A   Overcast
1:55 AM 22.8 °F 14.5 °F 15.4 °F 73% 30.17 in 10.0 mi ENE 6.9 mph - N/A   Overcast
2:15 AM 22.1 °F 12.0 °F 14.9 °F 74% 30.17 in 10.0 mi East 9.2 mph - N/A   Overcast
2:35 AM 22.1 °F 12.0 °F 14.9 °F 74% 30.17 in 10.0 mi East 9.2 mph - N/A   Mostly Cloudy
2:55 AM 22.1 °F 12.8 °F 14.7 °F 73% 30.17 in 10.0 mi East 8.1 mph - N/A   Scattered Clouds
3:15 AM 22.1 °F 13.7 °F 14.7 °F 73% 30.17 in 10.0 mi East 6.9 mph - N/A   Scattered Clouds
3:35 AM 22.1 °F 10.6 °F 14.4 °F 72% 30.18 in 10.0 mi East 11.5 mph - N/A   Overcast
3:55 AM 22.5 °F 17.8 °F 14.2 °F 71% 30.19 in 10.0 mi ENE 3.5 mph - N/A   Overcast
4:15 AM 22.1 °F 12.8 °F 14.5 °F 73% 30.19 in 10.0 mi ENE 8.1 mph - N/A   Overcast
4:35 AM 22.1 °F 14.7 °F 14.0 °F 71% 30.19 in 10.0 mi ENE 5.8 mph - N/A   Mostly Cloudy
4:50 AM 22.1 °F 12.8 °F 14.0 °F 71% 30.20 in 10.0 mi East 8.1 mph - N/A   Scattered Clouds
5:15 AM 22.1 °F 12.0 °F 13.8 °F 70% 30.21 in 10.0 mi East 9.2 mph - N/A   Clear
5:35 AM 21.9 °F 11.7 °F 14.0 °F 72% 30.22 in 10.0 mi ENE 9.2 mph 16.1 mph N/A   Clear
5:55 AM 21.9 °F 11.7 °F 14.0 °F 72% 30.23 in 10.0 mi East 9.2 mph - N/A   Scattered Clouds
6:15 AM 21.9 °F 11.0 °F 14.7 °F 74% 30.24 in 10.0 mi East 10.4 mph 17.3 mph N/A   Scattered Clouds
6:35 AM 21.6 °F 10.6 °F 15.3 °F 77% 30.24 in 5.0 mi ENE 10.4 mph 19.6 mph N/A Snow Light Snow
6:55 AM 21.2 °F 11.7 °F 16.3 °F 82% 30.25 in 2.5 mi East 8.1 mph 18.4 mph N/A Snow Light Snow
7:15 AM 21.0 °F 11.4 °F 16.9 °F 84% 30.26 in 5.0 mi East 8.1 mph - N/A Snow Light Snow
7:35 AM 20.8 °F 7.9 °F 17.1 °F 85% 30.25 in 2.5 mi East 13.8 mph 18.4 mph N/A Snow Light Snow
7:55 AM 20.7 °F 10.2 °F 17.1 °F 86% 30.26 in 1.2 mi East 9.2 mph 17.3 mph N/A Snow Light Snow
8:15 AM 20.3 °F 9.0 °F 17.6 °F 89% 30.26 in 0.8 mi East 10.4 mph 19.6 mph N/A Snow Light Snow
8:35 AM 20.7 °F 10.2 °F 18.0 °F 89% 30.27 in 0.5 mi East 9.2 mph 16.1 mph N/A Snow Snow
8:55 AM 21.0 °F 11.4 °F 18.5 °F 90% 30.29 in 0.5 mi East 8.1 mph 17.3 mph N/A Snow Snow
9:15 AM 21.9 °F 10.4 °F 19.2 °F 89% 30.30 in 0.8 mi East 11.5 mph - N/A Snow Light Snow
9:30 AM 21.9 °F 10.4 °F 18.5 °F 87% 30.30 in 0.8 mi East 11.5 mph - N/A Snow Light Snow
9:55 AM 22.6 °F 12.6 °F 18.7 °F 85% 30.31 in 2.0 mi East 9.2 mph 16.1 mph N/A Snow Light Snow
10:15 AM 23.0 °F 13.1 °F 18.5 °F 83% 30.31 in 3.0 mi East 9.2 mph 17.3 mph N/A Snow Light Snow
10:35 AM 23.5 °F 16.4 °F 19.0 °F 83% 30.32 in 1.0 mi East 5.8 mph 16.1 mph N/A Snow Light Snow
10:55 AM 24.3 °F 13.3 °F 19.4 °F 82% 30.32 in 1.2 mi East 11.5 mph 17.3 mph N/A Snow Light Snow
11:15 AM 24.4 °F 14.9 °F 19.0 °F 80% 30.32 in 3.0 mi East 9.2 mph 19.6 mph N/A Snow Light Snow
11:35 AM 25.0 °F 14.2 °F 19.2 °F 79% 30.33 in 4.0 mi East 11.5 mph - N/A   Haze
11:55 AM 25.0 °F 14.2 °F 19.0 °F 78% 30.34 in 7.0 mi East 11.5 mph - N/A   Scattered Clouds
12:15 PM 25.0 °F 15.5 °F 18.7 °F 77% 30.34 in 7.0 mi East 9.2 mph 16.1 mph N/A   Scattered Clouds
12:35 PM 25.3 °F 15.3 °F 19.0 °F 77% 30.33 in 7.0 mi East 10.4 mph 19.6 mph N/A   Scattered Clouds
12:55 PM 25.3 °F 15.3 °F 18.9 °F 76% 30.33 in 10.0 mi East 10.4 mph 16.1 mph N/A   Mostly Cloudy
1:15 PM 24.8 °F 14.0 °F 18.9 °F 78% 30.33 in 10.0 mi East 11.5 mph 18.4 mph N/A   Scattered Clouds
1:35 PM 24.8 °F 13.4 °F 19.0 °F 79% 30.32 in 7.0 mi East 12.7 mph 18.4 mph N/A   Scattered Clouds
1:55 PM 25.3 °F 14.1 °F 19.2 °F 78% 30.33 in 10.0 mi East 12.7 mph 18.4 mph N/A   Scattered Clouds
2:15 PM 25.5 °F 17.8 °F 19.6 °F 78% 30.31 in 7.0 mi East 6.9 mph 18.4 mph N/A   Scattered Clouds
2:35 PM 25.5 °F 14.3 °F 19.4 °F 78% 30.32 in 5.0 mi ENE 12.7 mph 18.4 mph N/A   Haze
2:55 PM 25.3 °F 15.3 °F 19.4 °F 78% 30.32 in 4.0 mi East 10.4 mph 18.4 mph N/A   Haze
3:15 PM 25.3 °F 14.7 °F 19.8 °F 79% 30.32 in 3.0 mi East 11.5 mph 17.3 mph N/A   Haze
3:35 PM 25.7 °F 18.0 °F 20.3 °F 80% 30.32 in 4.0 mi East 6.9 mph - N/A   Haze
3:55 PM 24.8 °F 16.1 °F 19.4 °F 80% 30.32 in 5.0 mi East 8.1 mph 16.1 mph N/A   Haze
4:15 PM 24.6 °F 13.8 °F 19.4 °F 81% 30.33 in 5.0 mi East 11.5 mph 18.4 mph N/A   Haze
4:35 PM 24.4 °F 13.5 °F 19.4 °F 81% 30.33 in 5.0 mi East 11.5 mph 18.4 mph N/A   Haze
4:55 PM 23.9 °F 15.0 °F 19.2 °F 82% 30.33 in 7.0 mi East 8.1 mph - N/A   Mostly Cloudy
5:15 PM 23.9 °F 12.9 °F 19.4 °F 83% 30.34 in 10.0 mi East 11.5 mph 16.1 mph N/A   Mostly Cloudy
5:35 PM 23.5 °F 12.4 °F 19.0 °F 83% 30.34 in 10.0 mi East 11.5 mph - N/A   Mostly Cloudy
5:55 PM 23.2 °F 11.4 °F 18.7 °F 83% 30.35 in 10.0 mi East 12.7 mph 18.4 mph N/A   Mostly Cloudy
6:15 PM 23.0 °F 13.9 °F 18.7 °F 84% 30.35 in 10.0 mi East 8.1 mph - N/A   Mostly Cloudy
6:35 PM 22.6 °F 12.6 °F 18.5 °F 84% 30.36 in 10.0 mi East 9.2 mph - N/A   Mostly Cloudy
6:55 PM 22.5 °F 11.7 °F 18.3 °F 84% 30.36 in 10.0 mi East 10.4 mph 16.1 mph N/A   Overcast
7:15 PM 22.3 °F 13.0 °F 18.3 °F 85% 30.36 in 10.0 mi East 8.1 mph - N/A   Overcast
7:35 PM 22.1 °F 12.8 °F 18.1 °F 85% 30.37 in 10.0 mi East 8.1 mph - N/A   Overcast
7:55 PM 22.1 °F 12.0 °F 18.1 °F 85% 30.37 in 10.0 mi East 9.2 mph - N/A   Overcast
8:15 PM 21.9 °F 12.5 °F 18.1 °F 85% 30.37 in 10.0 mi East 8.1 mph - N/A   Overcast
8:35 PM 21.9 °F 11.7 °F 18.3 °F 86% 30.37 in 10.0 mi East 9.2 mph - N/A   Mostly Cloudy
8:55 PM 21.7 °F 12.3 °F 18.1 °F 86% 30.38 in 10.0 mi East 8.1 mph - N/A   Scattered Clouds
9:15 PM 21.7 °F 11.5 °F 18.0 °F 85% 30.38 in 10.0 mi East 9.2 mph - N/A   Mostly Cloudy
9:35 PM 21.7 °F 12.3 °F 17.8 °F 85% 30.38 in 10.0 mi East 8.1 mph - N/A   Overcast
9:55 PM 21.6 °F 12.1 °F 17.8 °F 85% 30.37 in 10.0 mi East 8.1 mph - N/A   Overcast
10:15 PM 21.2 °F 11.7 °F 17.8 °F 87% 30.37 in 10.0 mi East 8.1 mph - N/A   Overcast
10:35 PM 21.2 °F 12.6 °F 18.0 °F 87% 30.36 in 10.0 mi ESE 6.9 mph - N/A   Overcast
10:55 PM 21.2 °F 11.7 °F 18.0 °F 87% 30.36 in 10.0 mi ESE 8.1 mph - N/A   Overcast
11:15 PM 21.2 °F 11.7 °F 18.0 °F 87% 30.36 in 10.0 mi ESE 8.1 mph - N/A   Overcast
11:35 PM 21.2 °F 12.6 °F 17.6 °F 86% 30.35 in 10.0 mi ESE 6.9 mph - N/A   Overcast
11:55 PM 21.2 °F 13.6 °F 17.8 °F 87% 30.36 in 10.0 mi East 5.8 mph - N/A   Overcast